STARLINK-4673, 53589

Orbit data source: Space-Track

STARLINK-4673, 53589 is a payload satellite owned by SpaceX/Seattle (US) in LEO that was launched on Sun, 28 Aug 2022 UTC via an FALCON 9 launch vehicle from the Air Force Eastern Test Range (AFETR). Payload-class satellites include a variety of spacecraft equipped with specific instruments for various scientific and technological missions. These include communications satellites like Starlink; space stations such as the ISS; scientific satellites like the Hubble; Earth observation satellites from companies like Planet Labs, Umbra, and HawkEye 360; GPS; miniature CubeSats for education and research; and military/defense satellites.

Loading next visibility...
Identifier
53589, 2022-104B
Orbit
LEO
Country
Flag of USUS
Related business
Manufacturer
SpaceX/Seattle
Mission
Operational Commercial Communications
Bus & Motor
STARLINK, Unknown motor
Mass
300 kg wet, ~290 kg dry
Launch date (UTC)
2022-08-28 (3 years ago)
Launch vehicle
FALCON 9
Launch site
Air Force Eastern Test Range (AFETR)
Object type
Payload
Rocket body
Debris
Shape & HBR
Box + 1 Pan, 10.1 m
Radar Cross Section
13.562 m², Large (>1 m²)

Expand to show TLE details & history
Last TLE update: 13 hours ago

TLE from 13 hours ago
0 STARLINK-4673
1 53589U 22104B   26036.95763924  .00000300  00000-0  36962-4 0  9994
2 53589  53.2189  26.6202 0001352  87.8287 272.2860 15.08839731191158
Epoch: 2026-02-05T22:59Z
TLE epoch observation values (Epoch: 2026-02-05T22:59:00.030Z)
Latitude
-0.00001°
Longitude
-94.23235°
Altitude
540.605 km
Speed
7.593 km/s
True Right ascension
01h 46m 28s
True Declination
0° 00' 00"
Sunlit
Object was in daylight at epoch
Visualization orbit readout
Latitude
Unknown
Longitude
Unknown
Altitude
Unknown
Speed
Unknown
Apparent Right ascension
Unknown
Apparent Declination
Unknown
Sunlit
N/A
Visualization observer readout
Local Sidereal Time
13:55:08
Azimuth
Unknown
Elevation
Unknown
Doppler factor
Unknown
Orbital elements
Apogee altitude
540.924 km
Perigee altitude
539.054 km
Semi-major axis
6,918.126 km
Eccentricity
0.00014
Inclination
53.2189°
RAAN
26.6202°
Arg. of periapsis
87.8287°
True anomaly
272.27052°
Mean anomaly
272.286°
Eccentric anomaly
272.27826°
Mean motion
3.7719 °/min
Orbital period
95.44 mins
BSTAR
0.000036962
Loading maneuver chart data...
Computing Atmospheric mass density...
Loading historical data...
Loading historical data...
Loading historical data...
Loading historical data...
Loading historical data...
Loading historical data...
Loading historical data...

Documentation

Showing up to 5 results
|